Location: Balsareny
(41.8670°N, 1.8830°E)
Time: 22:34:53
(UTC+01:00)

Envisat - Visible Passes

Search period start: 14 November 2019 00:00
Search period end: 24 November 2019 00:00
Orbit: 764 x 766 km, 98.1° (Epoch: 14 November)

Date Brightness Start Highest point End Pass type
(mag) Time Alt. Az. Time Alt. Az. Time Alt. Az.
14 Nov 5.7 06:48:44 10° NE 06:52:45 23° E 06:56:44 10° SE visible
14 Nov 3.7 18:03:28 10° SE 18:07:55 32° ENE 18:12:23 10° N visible
14 Nov 4.8 19:42:26 10° SSW 19:46:53 31° W 19:51:23 10° NNW visible
15 Nov 3.3 19:04:56 10° S 19:09:58 69° WSW 19:15:04 10° NNW visible
16 Nov 3.1 18:28:19 10° SSE 18:33:15 54° ENE 18:38:13 10° N visible
16 Nov 5.7 20:09:13 10° SW 20:12:36 18° W 20:16:01 10° NW visible
17 Nov 6.0 06:37:54 10° NE 06:41:23 18° E 06:44:51 10° SE visible
17 Nov 4.4 19:30:50 10° SSW 19:35:33 39° W 19:40:18 10° NNW visible
18 Nov 3.0 18:53:37 10° SSE 18:58:42 87° WSW 19:03:49 10° NNW visible
19 Nov 5.1 07:02:34 10° NNE 07:07:06 32° E 07:11:35 10° SSE visible
19 Nov 3.3 18:17:16 10° SE 18:22:02 43° ENE 18:26:50 10° N visible
19 Nov 5.4 19:57:17 10° SW 20:01:14 22° W 20:05:12 10° NW visible
20 Nov 6.1 06:27:16 10° ENE 06:29:59 14° E 06:32:42 10° ESE visible
20 Nov 3.9 19:19:20 10° S 19:24:14 49° W 19:29:11 10° NNW visible
21 Nov 2.9 18:42:23 10° SSE 18:47:26 75° ENE 18:52:32 10° N visible
21 Nov 6.1 20:24:50 10° WSW 20:27:00 13° W 20:29:11 10° WNW visible
22 Nov 5.5 06:51:34 10° NE 06:55:45 25° E 06:59:53 10° SSE visible
22 Nov 3.6 18:06:17 10° SE 18:10:50 34° ENE 18:15:24 10° N visible
22 Nov 5.0 19:45:32 10° SSW 19:49:52 28° W 19:54:14 10° NW visible
23 Nov 6.4 06:17:11 10° ENE 06:18:34 11° E 06:19:57 10° ESE visible
23 Nov 3.4 19:07:55 10° S 19:12:56 63° W 19:17:59 10° NNW visible
